Flag for Canada Weather past 2 weeks in Port Coquitlam, British Columbia, Canada

Now
50 °F

Cool.


Feels Like: 50 °F
Forecast: 41 / 64 °F
Wind: No wind

Location: P. Meadows Coastal Station

Current Time: May 3, 2015 at 11:22:25 PM

Latest Report: May 3, 2015 at 11:00 PM


Visibility: N/A

Pressure: 29.87 "Hg

Humidity: 82%

Dew point: 44 °F

Location of Port CoquitlamLocation

Historic Weather in Port Coquitlam — Graph

°F

Port Coquitlam temperature yesterday

Maximum temperature yesterday: 63 °F (at 5:00 PM)
Minimum temperature yesterday: 40 °F (at 4:00 AM)
Average temperature yesterday: 52 °F

Past Weeks' High & Low Weather Summary

 TemperatureHumidityPressure
High72 °F (Apr 20, 4:00 PM)100% (Apr 27, 6:00 AM)30.30 "Hg (Apr 27, 6:00 AM)
Low36 °F (Apr 26, 6:00 AM)33% (May 3, 7:00 PM)29.72 "Hg (Apr 24, 5:00 AM)
Average51 °F75%30.04 "Hg
* Reported Apr 18 10:00 PM — May 3 10:00 PM, Port Coquitlam, Weather by CustomWeather, © 2015

Note: Actual official high and low records may vary slightly from our data, if they occured in-between our weather recording intervals... More about our weather records

Advertising

Port Coquitlam weather history for previous 24 hours

 ConditionsComfort  
Time TempWeatherWind HumidityBarometerVisibility
10:00 PM
Sun, May 3
53 °FCool.1 mph75%29.88 "HgN/A
9:00 PM59 °FRefreshingly cool.2 mph53%29.88 "HgN/A
8:00 PM62 °FRefreshingly cool.2 mph36%29.87 "HgN/A
7:00 PM66 °FMild.2 mph33%29.88 "HgN/A
6:00 PM67 °FMild.3 mph36%29.89 "HgN/A
5:00 PM67 °FMild.6 mph36%29.91 "HgN/A
4:00 PM67 °FMild.5 mph36%29.93 "HgN/A
3:00 PM67 °FMild.6 mph47%29.96 "HgN/A
2:00 PM66 °FMild.7 mph46%29.97 "HgN/A
1:00 PM64 °FMild.5 mph48%29.98 "HgN/A
12:00 PM62 °FRefreshingly cool.6 mph46%30.00 "HgN/A
11:00 AM59 °FCool.3 mph63%30.01 "HgN/A
10:00 AM53 °FCool.1 mph72%30.03 "HgN/A
9:00 AM51 °FCool.1 mph77%30.03 "HgN/A
8:00 AM47 °FCool.1 mph88%30.03 "HgN/A
7:00 AM43 °FQuite cool.1 mph95%30.03 "HgN/A
6:00 AM40 °FChilly.1 mph97%30.02 "HgN/A
5:00 AM41 °FQuite cool.No wind96%30.02 "HgN/A
4:00 AM42 °FQuite cool.No wind93%30.01 "HgN/A
3:00 AM42 °FQuite cool.No wind96%30.02 "HgN/A
2:00 AM44 °FQuite cool.No wind90%30.02 "HgN/A
1:00 AM44 °FQuite cool.1 mph87%30.02 "HgN/A
12:00 AM46 °FCool.No wind86%30.02 "HgN/A
11:00 PM
Sat, May 2
49 °FCool.2 mph78%30.02 "HgN/A
Weather by CustomWeather, © 2015

See weather overviewHow to use our weather pages